Location: Lokoya
(38.3732°N, 122.4278°W)
Time: 19:23:42
(UTC+00:00)

Daily predictions for brighter satellites

Satellite Brightness Start Highest point End
(mag) Time Altitude Azimuth Time Altitude Azimuth Time Altitude Azimuth
Cosmos 1844 Rocket 4.3 12:13:00 30° ESE 12:13:00 30° ESE 12:16:04 10° SE
Cosmos 2333 Rocket 3.3 12:24:13 41° ENE 12:24:13 41° ENE 12:28:30 10° NE
Cosmos 2219 Rocket 3.0 12:31:48 48° E 12:31:48 48° E 12:36:59 10° NE
SJ 16-02 3.3 12:36:29 27° E 12:36:29 27° E 12:39:28 10° SE
Meteor 2-5 Rocket 4.2 12:38:52 56° ESE 12:38:52 56° ESE 12:43:37 10° SSE
ATLAS 3B CENTAUR R/B 4.5 12:39:10 30° SSW 12:40:56 31° S 12:53:46 10° SE
COSMOS 2428 3.4 12:40:28 33° SSE 12:42:37 50° ESE 12:48:07 10° NNE
OAO 2 Rocket 4.2 12:53:34 40° SE 12:53:34 40° SE 12:57:36 10° E
ERS-2 4.3 12:55:09 10° ESE 12:58:05 23° ENE 12:58:56 21° NE
Cosmos 2360 Rocket 4.1 13:03:58 16° N 13:03:58 16° N 13:05:11 10° N
CZ-4B R/B 4.4 12:59:05 10° NNE 13:02:20 31° E 13:05:39 10° SSE
Cosmos 1726 4.3 13:05:14 10° SSE 13:11:09 19° NNE 13:12:21 10° NNE
Cosmos 468 Rocket 4.2 13:06:22 10° S 13:11:32 69° ESE 13:16:47 10° NNE
Cosmos 1455 Rocket 3.9 13:09:32 10° SSE 13:13:44 48° E 13:17:56 10° NNE
SKYMED 2 4.0 13:11:27 10° SSE 13:15:43 61° ENE 13:17:36 32° N
Meteor 1-24 Rocket 3.5 13:15:26 50° NNW 13:16:51 75° W 13:22:28 10° S
IRIDIUM 104 4.2 13:19:19 10° S 13:24:31 80° W 13:29:46 10° N
CZ-2C R/B 3.6 13:24:07 14° S 13:25:57 18° SSE 13:28:43 10° ESE
Envisat 4.4 13:22:25 10° NNE 13:27:10 39° E 13:31:53 10° SSE
Cosmos 1844 3.8 13:28:03 48° W 13:28:49 52° WSW 13:34:23 10° S
BREEZE-M (TANK) 4.5 13:31:08 10° NE 13:31:08 10° NE 13:31:09 10° NE
IRIDIUM 114 4.2 13:28:30 10° SSW 13:33:40 65° W 13:38:52 10° N
Atlas Centaur 2 4.1 13:28:32 14° SW 13:34:43 38° SSE 13:42:24 10° E
deb Chang Zheng 4 3.3 13:31:18 10° N 13:35:33 73° WNW 13:39:44 10° SSW
Meteor 2-10 4.1 13:31:47 10° SSW 13:37:28 74° W 13:43:02 10° N
BREEZE-M DEB (TANK) 2.5 13:37:38 45° SSW 13:38:19 62° SE 13:43:55 10° ENE
ADEOS 3.9 13:34:21 10° N 13:39:07 40° WNW 13:39:07 40° WNW
H-2A R/B 2.7 13:37:09 10° NNE 13:40:51 76° ESE 13:44:33 10° S
IRIDIUM 103 4.4 13:37:46 10° SSW 13:42:50 52° W 13:47:56 10° N
SAR-Lupe-4 3.6 13:46:34 10° SSE 13:50:09 81° ENE 13:53:05 15° N
CZ-4B R/B 3.2 13:48:46 10° SSW 13:50:04 20° SSW 13:50:04 20° SSW
Nadezhda 4 Rocket 4.3 13:46:11 10° N 13:52:18 67° E 13:58:21 10° SSE
Cosmos 1892 Rocket 3.5 13:50:00 18° NNW 13:53:09 58° W 13:57:26 10° S
Cosmos 1844 Rocket 3.7 13:54:43 24° WSW 13:54:43 24° WSW 13:58:43 10° SSW
Cosmos 540 Rocket 3.4 13:54:55 10° SSW 14:00:01 88° WNW 14:05:11 10° NNE
Cosmos 2278 Rocket 2.7 13:54:36 10° NNW 14:00:15 62° ENE 14:05:51 10° SSE
SAR-Lupe-1 3.9 13:57:42 10° S 14:01:16 73° WSW 14:04:28 13° NNW
USA 276 2.2 14:00:48 44° W 14:01:25 54° SW 14:04:29 10° SE
Cosmos 990 Rocket 3.9 13:56:59 13° NNW 14:01:31 65° WSW 14:06:35 10° S
PSLV R/B 3.8 13:58:39 10° S 14:02:42 71° WSW 14:06:51 10° NNW
COSMO-SKYMED 1 3.1 13:59:51 10° SSW 14:03:51 36° W 14:06:14 20° NW
Cosmos 1461 3.3 13:59:58 13° SW 14:04:03 51° NW 14:08:42 10° NNE
Cosmos 1953 2.2 14:00:31 10° SSW 14:04:29 72° W 14:08:28 10° N
BREEZE-M DEB (TANK) 3.5 14:00:00 17° NW 14:06:39 57° NNE 14:09:49 10° ESE
Cosmos 2333 Rocket 3.2 14:06:19 23° WNW 14:07:36 24° NW 14:12:10 10° N
Cosmos 2237 Rocket 2.1 14:02:07 10° SSW 14:07:46 84° WNW 14:13:29 10° NNE
Cosmos 921 Rocket 3.6 14:05:54 10° SW 14:09:47 33° WNW 14:13:37 10° N
MOS 1 Rocket 3.7 14:07:51 10° S 14:12:50 49° W 14:17:34 10° NNW
SJ 16-02 2.5 14:13:33 21° W 14:13:59 21° W 14:17:16 10° SSW
Cosmos 858 Rocket 4.4 14:09:31 10° NNW 14:14:47 85° WSW 14:20:00 10° SSE
CZ-2C R/B 3.5 14:10:21 10° SSE 14:15:21 51° ENE 14:20:27 10° N
Cosmos 2219 Rocket 3.2 14:13:39 19° W 14:15:49 23° NW 14:20:14 10° N
GPS 2-04 Rocket1 3.8 14:15:02 18° WSW 14:17:36 35° SSW 14:21:25 10° SE
Meteor 2-13 Rocket 4.4 14:12:59 10° NNW 14:19:08 74° W 14:25:14 10° S
Cosmos 1689 Rocket 2.7 14:18:32 10° SSW 14:21:13 34° W 14:23:02 17° NW
YAOGAN 6 2.8 14:18:37 10° N 14:22:11 47° WNW 14:25:44 10° SSW
Cosmos 1763 Rocket 4.3 14:18:12 10° WSW 14:22:36 28° WNW 14:27:05 10° N
Cosmos 44 Rocket 3.7 14:18:03 10° NNW 14:23:17 70° ENE 14:28:28 10° SE
Cosmos 1544 Rocket 3.9 14:20:22 10° SSW 14:24:24 39° WNW 14:28:28 10° N
Cosmos 1908 3.1 14:21:01 10° SSW 14:24:46 61° W 14:28:33 10° N
Cosmos 1898 Rocket 3.8 14:21:16 10° NNW 14:26:10 44° WSW 14:31:03 10° S
Cosmos 841 Rocket 3.5 14:21:53 10° SW 14:26:53 53° WNW 14:31:55 10° N
COSMOS 2428 3.8 14:22:43 10° WSW 14:27:10 23° NW 14:31:39 10° N
Okean 1-7 Rocket 4.2 14:26:04 10° NNW 14:30:12 35° W 14:34:17 10° SSW
ERS-2 3.6 14:28:53 10° SW 14:31:33 19° W 14:33:31 13° WNW
NOSS 3-2 (A) 4.0 14:26:18 10° SSW 14:31:39 57° ESE 14:37:39 10° NE
Cosmos 1570 Rocket 4.0 14:26:43 10° SSW 14:31:52 59° WNW 14:37:02 10° N
NOAA 12 4.2 14:27:40 10° NNE 14:32:58 83° ESE 14:38:16 10° SSW
CZ-4B R/B 4.3 14:35:14 10° NW 14:37:10 14° WNW 14:39:06 10° W
OAO 2 Rocket 3.7 14:32:36 10° W 14:37:26 59° S 14:42:18 10° ESE
Cosmos 1980 4.0 14:34:57 10° SW 14:40:17 42° WNW 14:45:40 10° N
CORIOLIS 4.3 14:36:45 10° NNE 14:42:08 81° ESE 14:47:28 10° S
Lacrosse 4 Rocket 1.6 14:39:02 10° SSW 14:43:10 77° ESE 14:47:29 10° NNE
FALCON 9 DEB 3.8 14:40:06 10° WSW 14:43:14 34° NW 14:46:24 10° NNE
NOAA 11 4.4 14:37:56 10° NNE 14:43:25 78° ESE 14:48:51 10° S
Cosmos 1626 Rocket 3.9 14:42:41 10° NNW 14:46:57 45° W 14:51:11 10° SSW
Cosmos 2208 Rocket 4.3 14:44:17 10° SW 14:49:35 51° WNW 14:54:53 10° N
SMAP 3.1 14:47:00 10° N 14:51:36 59° WNW 14:56:10 10° SSW
Cosmos 2228 3.2 14:50:13 10° S 14:54:28 77° E 14:58:43 10° N
